DW7214 Weather Reports


time (UTC)temp
F
wind
direction
speed
knots
gust
knots
rain 1hr
in
rain 24hr
in
rain mn
in
humidity
%
barometer
mb
20260906110029 55 352 0.0 2.6 0.01 0.01 0.01 93 1016.0
20260906104514 55 213 0.0 0.0 0.00 0.00 0.00 94 1016.0
20260906103019 55 218 0.0 0.0 0.00 0.00 0.00 94 1015.9
20260906101523 54 223 0.0 1.7 0.00 0.00 0.00 94 1015.9
20260906100031 54 225 0.0 0.0 0.00 0.00 0.00 94 1015.9
20260906094529 54 225 0.0 0.0 0.00 0.00 0.00 94 1016.0
20260906093016 54 227 0.0 0.0 0.00 0.00 0.00 93 1015.9
20260906091531 54 227 0.0 0.0 0.00 0.00 0.00 94 1015.8
20260906090027 54 225 0.0 0.0 0.00 0.00 0.00 93 1015.8
20260906084535 54 236 0.0 0.0 0.00 0.00 0.00 93 1015.8
20260906083032 54 236 0.0 0.0 0.00 0.00 0.00 93 1015.8
20260906081521 54 236 0.0 0.0 0.00 0.00 0.00 93 1015.7
20260906080022 54 236 0.0 0.0 0.00 0.00 0.00 93 1015.8
20260906074530 54 236 0.0 1.7 0.00 0.00 0.00 93 1015.8
20260906073030 54 244 0.0 0.0 0.00 0.00 0.00 93 1016.0
20260906071533 55 248 0.0 1.7 0.00 0.00 0.00 93 1016.1
20260906070025 55 249 0.0 0.0 0.00 0.00 0.00 92 1016.2
20260906064528 55 257 0.0 0.0 0.00 0.00 0.00 92 1016.2
20260906063031 55 219 0.0 0.0 0.00 0.00 0.00 92 1016.2
20260906061534 55 208 0.0 0.0 0.00 0.00 0.00 92 1016.2
20260906060019 55 208 0.0 0.0 0.00 0.00 0.00 91 1016.1
20260906054528 55 208 0.0 0.0 0.00 0.00 0.00 91 1016.3
20260906053032 55 208 0.0 0.0 0.00 0.00 0.00 90 1016.3
20260906051530 56 209 0.0 1.7 0.00 0.00 0.00 90 1016.3
20260906050037 56 242 0.0 1.7 0.00 0.00 0.00 90 1016.4
20260906044525 56 250 0.0 1.7 0.00 0.00 0.00 89 1016.5
20260906043009 57 244 0.0 1.7 0.00 0.00 0.00 89 1016.6
20260906041510 57 234 0.0 0.0 0.00 0.00 0.00 89 1016.6
20260906040026 57 237 0.0 0.0 0.00 0.00 0.00 88 1016.5
20260906034527 58 216 1.7 3.5 0.00 0.00 0.00 87 1016.4
20260906033025 58 244 0.0 2.6 0.00 0.00 0.00 86 1016.3
20260906031508 59 253 0.9 2.6 0.00 0.00 0.00 85 1016.1
20260906030009 60 220 0.9 2.6 0.00 0.00 0.00 83 1016.2
20260906024518 61 246 0.9 2.6 0.00 0.00 0.00 82 1016.2
20260906023023 62 215 1.7 3.5 0.00 0.00 0.00 80 1016.3
20260906021531 63 226 0.0 1.7 0.00 0.00 0.00 76 1016.4
20260906020009 64 208 0.9 2.6 0.00 0.00 0.00 73 1016.4
20260906014519 65 217 0.0 1.7 0.00 0.00 0.00 72 1016.4
20260906013020 66 211 0.0 1.7 0.00 0.00 0.00 70 1016.2
20260906011525 67 170 0.0 0.0 0.00 0.00 0.00 69 1016.2
20260906010006 68 96 0.0 0.0 0.00 0.00 0.00 68 1016.2
20260906004511 68 76 0.0 2.6 0.00 0.00 0.00 61 1016.2
20260906003022 68 297 0.0 2.6 0.00 0.00 0.00 62 1016.2
20260906001535 67 188 0.0 0.9 0.00 0.00 0.00 69 1016.3
20260906000030 67 232 0.0 2.6 0.00 0.00 0.00 64 1016.2
20260905234508 69 243 1.7 4.3 0.00 0.00 0.00 62 1016.2
20260905233018 68 178 0.0 3.5 0.00 0.00 0.00 65 1016.2
20260905231532 68 211 0.9 3.5 0.00 0.00 0.00 65 1016.4
20260905230031 69 178 0.0 6.1 0.00 0.00 0.00 62 1016.5
20260905224531 70 327 0.0 3.5 0.00 0.00 0.00 59 1016.6
20260905223016 70 190 1.7 4.3 0.00 0.01 0.00 60 1016.7
20260905221523 70 211 0.9 2.6 0.00 0.01 0.00 61 1016.8
20260905220030 70 261 1.7 3.5 0.00 0.01 0.00 62 1017.0
20260905214531 68 234 0.9 2.6 0.00 0.03 0.00 65 1017.0
20260905213011 67 204 0.9 3.5 0.00 0.03 0.00 64 1017.2
20260905211516 68 312 0.0 1.7 0.00 0.03 0.00 65 1017.3
20260905210026 66 124 0.0 2.6 0.00 0.03 0.00 70 1017.5
20260905204526 65 313 0.0 2.6 0.00 0.03 0.00 69 1017.6
20260905203032 64 232 1.7 2.6 0.00 0.05 0.00 72 1017.6
20260905201516 64 350 0.9 1.7 0.00 0.07 0.00 74 1017.7
20260905200026 63 211 0.9 2.6 0.00 0.07 0.00 76 1017.7
20260905194527 63 103 0.0 3.5 0.00 0.07 0.00 76 1017.9
20260905193034 62 236 0.0 0.9 0.00 0.07 0.00 80 1018.0
20260905191511 61 235 1.7 4.3 0.00 0.07 0.00 81 1018.1
20260905190030 61 236 1.7 3.5 0.00 0.07 0.00 81 1018.1
20260905184506 61 328 0.0 2.6 0.00 0.07 0.00 80 1018.1
20260905183012 60 352 0.9 2.6 0.00 0.07 0.00 81 1018.3
20260905181513 60 199 0.0 1.7 0.00 0.07 0.00 85 1018.3
20260905180022 60 344 0.0 2.6 0.00 0.07 0.00 85 1018.3
20260905174527 59 68 0.0 2.6 0.00 0.09 0.00 86 1018.2
20260905173006 59 268 0.0 1.7 0.00 0.09 0.00 87 1018.2
20260905171511 58 336 0.9 2.6 0.00 0.09 0.00 87 1018.1
20260905170016 58 33 0.0 2.6 0.00 0.09 0.00 88 1018.1
20260905164521 58 24 0.0 0.0 0.00 0.09 0.00 89 1018.1
20260905163003 58 352 0.0 1.7 0.00 0.09 0.00 89 1018.2
20260905161516 57 323 0.0 1.7 0.00 0.09 0.00 91 1018.2
20260905160013 57 330 0.0 1.7 0.00 0.09 0.00 91 1018.3
20260905154518 57 351 0.0 2.6 0.00 0.09 0.00 92 1018.3
20260905153025 57 352 0.0 1.7 0.00 0.09 0.00 93 1018.2
20260905151504 56 255 0.0 0.0 0.00 0.09 0.00 94 1018.2
20260905150013 56 245 0.0 0.0 0.00 0.09 0.00 95 1018.2
20260905144524 55 245 0.0 0.0 0.00 0.11 0.00 95 1018.2
20260905143023 55 245 0.0 0.0 0.00 0.12 0.00 95 1018.1
20260905141528 55 245 0.0 0.0 0.00 0.13 0.00 95 1018.1
20260905140018 55 245 0.0 0.0 0.00 0.13 0.00 95 1018.0
20260905134516 55 245 0.0 0.0 0.00 0.13 0.00 95 1018.0
20260905133026 55 245 0.0 0.0 0.00 0.16 0.00 95 1017.9
20260905131529 55 245 0.0 0.0 0.00 0.16 0.00 95 1017.9
20260905130028 55 245 0.0 0.0 0.00 0.16 0.00 95 1017.8
20260905124514 55 245 0.0 0.0 0.00 0.16 0.00 95 1017.7
20260905123020 55 245 0.0 0.0 0.00 0.16 0.00 95 1017.7
20260905121523 55 245 0.0 0.0 0.00 0.16 0.00 95 1017.6
20260905120042 55 245 0.0 0.0 0.00 0.16 0.00 95 1017.4
20260905114512 55 245 0.0 0.0 0.00 0.16 0.00 95 1017.5
20260905113016 55 245 0.0 0.0 0.00 0.17 0.00 95 1017.4
20260905111537 55 245 0.0 0.0 0.00 0.17 0.00 95 1017.3